Regional Weather Roundup
Issued by NWS Northern Indiana

Home | Current Version | Previous Version | Graphics & Text | Print | Product List | Glossary On
Versions: 1 2 3 4 5 6 7 8 9 10 11 12 13 14 15 16 17 18 19 20 21 22 23 24 25 26 27 28 29 30 31 32 33 34 35 36 37 38 39 40 41 42 43 44 45 46 47 48 49 50
000
ASUS43 KIWX 010910
RWRIWX

KIWX WEATHER ROUNDUP
NATIONAL WEATHER SERVICE NORTHERN INDIANA
400 AM EST SUN FEB 01 2015

NOTE: "FAIR" INDICATES FEW OR NO CLOUDS BELOW 12,000 FEET WITH NO
SIGNIFICANT WEATHER AND/OR OBSTRUCTIONS TO VISIBILITY.

* THESE STATIONS ARE NOT UNDER NWS QUALITY CONTROL. THEY ALSO MAY NOT
  REPORT WEATHER SUCH AS PRECIPITATION OR FOG.

INZ001>027-011000-
NORTHERN INDIANA

CITY           SKY/WX    TMP DP  RH WIND       PRES   REMARKS
GARY*          LGT SNOW  33  31  92 CALM      30.08F
VALPARAISO     LGT SNOW  32  31  96 E6        30.07F VSB 3/4 WCI  26
MICHIGAN CITY* LGT SNOW  32  30  93 E3        30.09F
LAPORTE*       LGT SNOW  33  33 100 CALM      30.09F
KNOX*          CLOUDY    32  28  86 E3        30.08F VSB 1
SOUTH BEND     LGT SNOW  31  29  92 E3        30.10F VSB 3/4
GOSHEN         LGT SNOW  32  31  96 CALM      30.10F VSB 1
MONTICELLO*    LGT RAIN  32  32 100 CALM      30.08F
LOGANSPORT*    RAIN      32  32 100 CALM      30.10F
ROCHESTER*     LGT SNOW  34  34 100 CALM      30.09F
WARSAW*        LGT SNOW  32  32 100 CALM      30.10F VSB 1
ANGOLA*        CLOUDY    30  28  93 E5        30.10F WCI  25
FORT WAYNE     LGT SNOW  32  32 100 S3        30.12F VSB 1
HUNTINGTON*    LGT SNOW  32  29  89 CALM      30.10F VSB 1
PERU/GRISSOM   CLOUDY    32  32 100 S7        30.08F FOG     WCI  26
MARION*        CLOUDY    32  32 100 SE6       30.10F FOG     WCI  26

$$
INZ028>050-011000-
CENTRAL INDIANA

CITY           SKY/WX    TMP DP  RH WIND       PRES   REMARKS
LAFAYETTE      CLOUDY    32  31  96 E6        30.08F FOG     WCI  26
KOKOMO*        CLOUDY    34  30  86 S7        30.10S WCI  28
MUNCIE*        CLOUDY    32  31  96 SE5       30.10F FOG     WCI  27
INDIANAPOLIS   CLOUDY    30  29  96 E13       30.07F WCI  20

$$
MIZ043>046-050>051-056>058-064>065-071>073-077>080-011000-
SOUTHWEST LOWER MICHIGAN

CITY           SKY/WX    TMP DP  RH WIND       PRES   REMARKS
BATTLE CREEK   LGT SNOW  28  24  85 NE12      30.13F VSB 3/4 WCI  18
BENTON HARBOR  LGT SNOW  28  27  96 E6        30.11F VSB 1   WCI  22
COLDWATER*     LGT SNOW  29  29  98 E5        30.11F WCI  24
HILLSDALE*     LGT SNOW  29  29 100 E3        30.11F
HOLLAND        LGT SNOW  27  23  85 NE8       30.15F FOG     WCI  19
GRAND RAPIDS   LGT SNOW  25  22  88 E9        30.16F VSB 1   WCI  15
KALAMAZOO      LGT SNOW  29  27  92 E5        30.12F VSB 1   WCI  24
STURGIS*       LGT SNOW  28  28 100 CALM      30.10F
THREE RIVERS*  LGT SNOW  29  28  96 E6        30.12F VSB 1   WCI  23

$$
OHZ001>008-015>018-024>025-011000-
NORTHWEST OHIO

CITY           SKY/WX    TMP DP  RH WIND       PRES   REMARKS
DEFIANCE       LGT SNOW  33  31  92 CALM      30.14F VSB 1
FINDLAY        LGT SNOW  32  30  92 S3        30.13F FOG
TOLEDO EXPRESS LGT SNOW  30  28  93 NE6       30.14F FOG     WCI  24
TOLEDO METCALF LGT SNOW  31  29  92 CALM      30.16F VSB 3/4
LIMA           SNOW      33  31  92 S5        30.12F VSB 1/2 WCI  29

$$
AND FOR LAKE MICHIGAN COASTAL AND OPEN LAKE BUOY OBSERVATIONS

STATION/POSITION TEMP    WIND        PRES    VSBY  WAVE
                 AIR SEA DIR/SP/G                  HT/PER
                 (F)     (DEG/KT/KT) (MB)    (MI)  (FT/S)
CALUMET HARBOR    31      70/ 11/ 13   N/A
MICHIGAN CITY     30      60/  6/  8   N/A
SAINT JOSEPH      29      30/  1/  5 1020.0F

$$
&&



USA.gov is the U.S. government's official web portal to all federal, state and local government web resources and services.